TimeEDT,TemperatureF,Dew PointF,Humidity,Sea Level PressureIn,VisibilityMPH,Wind Direction,Wind SpeedMPH,Gust SpeedMPH,PrecipitationIn,Events,Conditions,WindDirDegrees,DateUTC
12:56 AM,30.0,25.0,82,30.30,10.0,Calm,Calm,-,N/A,,Clear,0,2013-03-10 05:56:00
1:56 AM,30.9,25.0,79,30.30,10.0,Calm,Calm,-,N/A,,Clear,0,2013-03-10 06:56:00
3:56 AM,28.9,23.0,78,30.30,10.0,Calm,Calm,-,N/A,,Clear,0,2013-03-10 07:56:00
4:56 AM,28.9,23.0,78,30.29,10.0,Calm,Calm,-,N/A,,Partly Cloudy,0,2013-03-10 08:56:00
5:56 AM,28.0,23.0,81,30.30,10.0,Calm,Calm,-,N/A,,Partly Cloudy,0,2013-03-10 09:56:00
6:56 AM,28.0,23.0,81,30.31,10.0,Calm,Calm,-,N/A,,Scattered Clouds,0,2013-03-10 10:56:00
8:56 AM,36.0,26.1,67,30.32,10.0,Calm,Calm,-,N/A,,Mostly Cloudy,0,2013-03-10 12:56:00
9:56 AM,39.9,24.1,53,30.33,10.0,Calm,Calm,-,N/A,,Mostly Cloudy,0,2013-03-10 13:56:00
10:56 AM,46.0,27.0,47,30.33,10.0,East,4.6,-,N/A,,Mostly Cloudy,90,2013-03-10 14:56:00
11:56 AM,52.0,28.0,40,30.32,10.0,SE,6.9,-,N/A,,Mostly Cloudy,130,2013-03-10 15:56:00
12:56 PM,55.9,26.1,32,30.29,10.0,SE,9.2,-,N/A,,Mostly Cloudy,130,2013-03-10 16:56:00
1:56 PM,55.9,24.1,29,30.27,10.0,South,9.2,19.6,N/A,,Mostly Cloudy,170,2013-03-10 17:56:00
2:56 PM,60.1,23.0,24,30.23,10.0,SE,12.7,-,N/A,,Mostly Cloudy,140,2013-03-10 18:56:00
3:56 PM,61.0,24.1,24,30.22,10.0,SSE,13.8,18.4,N/A,,Mostly Cloudy,160,2013-03-10 19:56:00
4:56 PM,57.9,21.9,25,30.21,10.0,SE,9.2,-,N/A,,Scattered Clouds,140,2013-03-10 20:56:00
5:56 PM,57.0,21.9,26,30.21,10.0,SSE,10.4,-,N/A,,Scattered Clouds,150,2013-03-10 21:56:00
6:56 PM,53.1,21.0,29,30.22,10.0,SSE,9.2,-,N/A,,Mostly Cloudy,150,2013-03-10 22:56:00
7:56 PM,51.1,24.1,35,30.23,10.0,SSE,5.8,-,N/A,,Clear,150,2013-03-10 23:56:00
8:56 PM,50.0,24.1,36,30.23,10.0,SSE,6.9,-,N/A,,Scattered Clouds,150,2013-03-11 00:56:00
9:56 PM,46.0,30.0,54,30.24,10.0,SE,8.1,-,N/A,,Mostly Cloudy,130,2013-03-11 01:56:00
10:56 PM,45.0,32.0,60,30.25,10.0,East,6.9,-,N/A,,Mostly Cloudy,100,2013-03-11 02:56:00
11:56 PM,41.0,30.9,67,30.24,10.0,ESE,6.9,-,N/A,,Mostly Cloudy,120,2013-03-11 03:56:00
12:56 AM,42.1,34.0,73,30.22,10.0,SE,12.7,-,N/A,,Mostly Cloudy,140,2013-03-11 04:56:00